User: anonymous   Login
Location: Brabourne
(51.1333°N, 1.0000°E)
Time: 06:07:28
(UTC+00:00)
Language:

Cosmos 468 Rocket - Orbit

View from above orbital plane
View from above orbital plane
View from above satellite
View from above satellite

Ground track
Ground track

The orbit data is extracted from the following two-line orbital elements,

1 05707U 71114B   21261.27533727  .00000096  00000-0  39525-4 0  9994
2 05707  74.0254  98.6391 0024256 147.9122 212.3515 14.38957464606095
Epoch (UTC): 18 September 2021 06:36:29
Eccentricity: 0.0024256
inclination: 74.0254°
perigee height: 744 km
apogee height: 779 km
right ascension of ascending node: 98.6391°
argument of perigee: 147.9122°
revolutions per day: 14.38957464
mean anomaly at epoch: 212.3515°
orbit number at epoch: 60609

The dashed part of the orbit path shows where the satellite is in the earth's shadow,  

DLR